Regional Weather Roundup
Issued by NWS Cleveland, OH

Home | Current Version | Previous Version | Graphics & Text | Print | Product List | Glossary On
Versions: 1 2 3 4 5 6 7 8 9 10 11 12 13 14 15 16 17 18 19 20 21 22 23 24 25 26 27 28 29 30 31 32 33 34 35 36 37 38 39 40 41 42 43 44 45 46 47 48 49 50
000
ASUS41 KCLE 270112
RWRCLE
OHIO REGIONAL WEATHER ROUNDUP
NATIONAL WEATHER SERVICE WILMINGTON, OH
900 PM EDT THU APR 26 2018

NOTE: "FAIR" INDICATES FEW OR NO CLOUDS BELOW 12,000 FEET WITH NO
SIGNIFICANT WEATHER AND/OR OBSTRUCTIONS TO VISIBILITY.

OHZ001>008-015>018-024>027-034-035-043-044-270200-
   NORTHWEST OHIO

CITY           SKY/WX    TMP DP  RH WIND       PRES   REMARKS
DEFIANCE       FAIR      55  36  48 CALM      29.85S
FINDLAY        FAIR      60  37  42 N3        29.85S
TOLEDO EXPRESS FAIR      55  34  45 CALM      29.85S
TOLEDO EXEC    FAIR      53  41  63 SE10      29.87R
LIMA           FAIR      57  40  52 NE3       29.86R
$$

OHZ009>014-019>023-028>033-038-089-270200-
   NORTHEAST OHIO

CITY           SKY/WX    TMP DP  RH WIND       PRES   REMARKS
CLE-HOPKINS    FAIR      50  34  54 E3        29.91S
CLE-LAKEFRONT  FAIR      50  33  52 CALM      29.89S
CUY CO. ARPT   PTCLDY    48 N/A N/A CALM      29.90S
LORAIN-ELYRIA  FAIR      49  33  54 NE9       29.89S
ASHTABULA      FAIR      45  35  68 CALM      29.91R
AKRON-CANTON   FAIR      56  35  45 CALM      29.88R
WOOSTER        FAIR      52  41  66 NE9       29.88R
MANSFIELD      FAIR      53  40  61 N6        29.87S
YOUNGSTOWN     MOCLDY    51  38  60 N6        29.89R
$$

OHZ042-051>053-060>062-070>072-077>081-270200-
  SOUTHWEST OHIO

CITY           SKY/WX    TMP DP  RH WIND       PRES   REMARKS
CINC-COVINGTON MOCLDY    62  34  35 CALM      29.84R
CINC-LUNKEN    FAIR      59  47  64 CALM      29.84R
HAMILTON       FAIR      57  44  62 CALM      29.85R
DAYTON         MOCLDY    59  38  45 CALM      29.85S
WRIGHT-PAT AFB MOCLDY    62  38  40 CALM      29.84R
DAYTON GENERAL FAIR      64  32  30 W3        29.84R
WILMINGTON     FAIR      64  37  36 NW5       29.84R
$$

OHZ036-037-039>041-045>050-054>059-063>069-073>076-082>088-270200-
  CENTRAL AND SOUTHEAST OHIO

CITY           SKY/WX    TMP DP  RH WIND       PRES   REMARKS
COLUMBUS       CLOUDY    61  41  47 CALM      29.84S
OSU AIRPORT    FAIR      56  42  59 NE7       29.84S
BOLTON FIELD   FAIR      59  44  56 CALM      29.85S
RICKENBACK AFB MOCLDY    59  46  62 E5        29.84R
NEWARK         FAIR      58  45  62 CALM      29.84S
MARION         FAIR      54  40  59 NE6       29.86S
LANCASTER      FAIR      56  50  80 E3        29.85R
ZANESVILLE     FAIR      59  40  49 E3        29.86S
NEW PHILLY     FAIR      56  38  50 CALM      29.88S
$$




USA.gov is the U.S. government's official web portal to all federal, state and local government web resources and services.